Theta_e
313 313 312 311 310 311 312 312 312 312 312 311 311 311 311 312 313 314 320 323 323 324 322 322 324 327 329 338 341 342 339 340 340 338 338 335 336 337 340 342 341 339 343 340 337
313 314 312 311 310 311 312 313 313 313 313 313 312 312 311 312 314 318 325 323 323 323 322 323 323 326 330 332 337 339 336 338 335 335 336 336 336 338 336 341 343 343 344 341 339
312 314 313 312 311 311 312 313 313 314 313 313 313 312 312 313 315 325 326 323 323 322 321 322 321 323 326 330 336 337 338 334 336 337 338 337 337 337 335 339 340 340 341 341 339
311 313 314 313 312 311 312 313 314 314 314 313 313 313 313 315 322 326 326 326 323 322 322 322 322 327 326 331 335 338 337 337 338 339 338 337 335 335 335 336 337 336 337 340 339
309 312 314 314 313 311 312 313 314 314 314 313 313 313 313 317 325 325 326 327 325 324 323 322 323 325 327 329 335 337 337 338 338 338 336 336 335 335 337 340 340 338 338 339 338
309 311 313 314 314 312 312 313 314 314 314 314 314 314 314 316 323 327 327 328 327 326 325 324 326 328 328 329 332 333 337 336 336 335 334 333 337 336 338 344 343 341 341 340 338
309 310 312 314 314 313 312 313 314 314 314 314 315 315 315 324 324 326 327 328 327 326 326 326 328 328 327 325 330 331 335 332 333 334 332 334 334 336 336 343 343 343 341 341 339
310 310 312 313 314 313 312 313 315 315 315 315 315 315 320 324 327 327 325 326 326 325 324 326 327 327 327 330 328 328 328 330 330 331 331 331 332 336 336 342 343 344 344 344 343
310 310 311 313 314 313 312 314 315 315 315 316 315 316 321 325 326 327 328 326 325 325 327 327 327 328 329 327 326 325 330 330 330 329 330 332 333 336 336 337 340 342 343 343 342
310 310 311 313 314 313 313 314 315 315 316 317 318 321 325 326 327 328 328 328 326 327 328 328 328 324 322 325 330 330 330 330 329 329 331 332 335 335 339 338 338 338 340 340 338
310 311 311 313 314 313 313 314 320 322 318 320 318 321 324 324 325 327 328 328 327 326 325 326 326 327 327 326 328 328 329 330 328 327 331 332 333 332 332 332 336 337 334 332 332
311 311 312 313 314 313 313 315 319 319 316 319 320 321 322 322 322 325 325 325 326 325 326 324 327 326 327 327 327 327 329 328 329 330 329 333 332 332 333 331 330 331 331 332 331
313 311 313 314 314 314 314 315 319 321 315 319 321 321 323 323 323 324 324 326 326 326 325 325 326 328 329 327 327 328 329 330 329 329 331 332 332 332 331 333 331 332 332 333 333
314 312 313 315 318 319 320 322 322 320 318 324 323 323 323 323 323 324 324 326 326 326 323 324 324 327 328 327 327 327 327 328 329 327 329 329 332 327 330 331 333 338 334 333 334
315 312 314 315 314 321 320 322 322 321 328 327 324 324 323 323 323 323 324 324 324 325 325 326 327 327 327 327 326 326 327 328 329 326 325 328 329 326 331 331 331 338 337 335 334
315 313 315 316 315 319 322 322 322 322 330 327 324 322 321 322 322 323 325 325 325 323 323 324 325 325 326 326 325 326 328 323 320 321 327 325 328 326 330 329 334 336 335 334 335
315 316 317 315 316 319 323 323 318 325 324 326 325 321 321 323 321 321 322 325 325 325 323 321 322 323 326 327 326 324 322 326 327 326 328 328 328 328 326 329 328 334 335 335 337
315 322 318 316 317 322 323 317 323 323 325 326 327 327 329 329 329 330 329 327 323 321 321 324 326 329 328 327 327 325 323 325 329 329 328 329 333 331 329 330 331 335 336 334 334
316 327 314 315 318 322 322 318 317 322 326 325 324 324 324 329 330 328 328 327 328 324 326 326 328 330 329 328 328 328 328 323 329 331 332 330 329 329 330 331 331 334 335 335 337
321 327 318 319 323 323 317 317 321 322 325 324 325 324 324 325 330 328 328 330 333 332 327 328 332 331 332 330 328 327 327 331 328 335 335 331 334 332 333 331 331 332 333 336 333
325 327 324 322 321 320 314 317 320 323 323 322 324 323 323 325 328 328 329 333 333 334 330 330 329 330 331 331 330 330 329 327 326 326 332 331 331 326 328 329 331 331 332 331 330
331 326 320 320 319 314 315 318 321 321 322 322 323 322 324 325 326 327 331 333 332 333 333 331 328 332 330 329 329 328 329 327 330 331 329 328 329 324 325 327 328 330 331 332 330
333 333 322 321 316 315 319 320 323 322 323 325 325 327 327 329 332 333 334 333 333 332 331 329 328 331 329 327 329 332 329 326 324 325 329 332 330 327 327 326 329 330 331 331 328
334 329 330 323 322 328 331 334 327 327 325 328 328 328 329 331 330 334 334 333 332 332 331 329 326 329 334 331 329 333 332 329 327 329 329 329 329 328 329 327 327 331 331 330 329
322 330 327 328 328 331 331 331 329 332 328 327 330 330 329 332 331 333 333 331 332 331 329 325 329 330 330 331 333 334 334 333 329 329 332 332 329 328 326 327 325 332 331 331 330
315 320 322 322 328 330 326 330 332 332 331 327 331 331 330 331 330 330 333 332 333 329 328 326 329 333 335 333 331 331 331 335 335 333 331 331 332 326 326 327 322 330 330 330 330
309 313 321 326 330 331 331 332 333 333 332 331 330 330 332 332 331 331 331 330 330 328 328 328 329 329 330 330 331 334 335 335 334 331 330 332 327 324 320 319 319 324 325 325 325
Wind_Speed
18 16 14 11 7 5 4 3 3 2 2 2 3 4 6 7 9 11 15 6 9 11 2 1 3 5 6 3 3 1 3 3 3 3 3 3 2 0 5 6 10 9 5 4 5
18 17 15 12 8 5 3 3 3 2 1 1 2 3 4 6 9 14 13 11 13 13 6 1 1 5 2 2 4 3 3 6 6 2 3 1 4 7 3 7 7 10 10 7 10
18 17 15 13 10 5 3 2 3 3 2 1 1 2 4 5 7 9 12 12 14 10 4 4 3 3 3 6 6 4 5 4 7 9 9 5 4 9 12 6 14 16 15 13 18
19 17 16 14 11 6 3 2 2 3 2 2 0 2 4 8 7 7 9 14 13 10 9 5 4 2 2 4 9 3 14 15 6 4 3 2 3 4 16 17 10 13 11 18 23
20 18 16 14 12 8 3 2 2 2 3 2 1 1 4 5 3 5 3 13 13 11 11 7 6 3 3 4 5 5 9 14 14 13 7 3 3 6 3 9 8 8 13 18 24
22 19 16 15 13 9 4 2 2 2 3 2 1 1 4 3 4 2 4 12 12 11 11 9 4 5 7 4 6 5 17 14 6 9 10 2 2 1 1 2 3 6 13 18 21
24 20 17 15 12 10 5 2 2 2 2 2 1 2 7 8 3 6 5 12 9 7 7 4 5 7 6 2 5 4 3 5 4 2 2 2 1 3 2 3 6 8 11 13 15
25 22 18 16 13 10 4 2 2 2 3 2 1 3 4 8 5 1 3 9 11 10 8 7 4 11 3 7 5 4 5 5 3 2 1 4 6 5 4 4 4 7 8 10 13
26 24 20 16 13 9 4 1 2 2 2 3 2 3 3 8 5 4 4 5 5 5 5 9 7 2 3 4 6 7 1 2 7 3 3 3 5 3 4 2 3 6 8 10 11
28 25 21 17 12 8 2 1 2 3 3 2 2 1 5 4 4 2 0 3 4 2 1 2 2 3 3 4 2 4 3 3 5 4 4 3 2 5 5 3 3 6 7 10 12
30 26 21 17 12 6 3 1 3 2 5 6 2 2 4 2 4 7 3 1 2 1 1 2 4 3 9 6 4 3 3 5 4 4 3 2 3 4 4 4 3 8 9 8 6
30 27 22 17 12 5 3 1 3 3 6 9 12 15 14 11 3 6 6 3 2 2 4 5 3 8 2 4 5 6 6 7 4 1 5 2 5 3 4 5 8 7 5 4 3
31 28 21 17 9 1 3 3 5 10 2 5 7 11 10 10 6 7 6 4 4 3 4 5 7 3 4 6 4 5 5 4 5 1 2 5 5 4 1 2 2 2 7 8 3
32 29 21 14 4 1 8 3 7 1 4 4 3 3 10 6 5 14 11 7 1 9 8 6 3 7 6 7 5 5 4 5 4 3 3 1 4 5 4 5 5 5 3 8 8
33 31 20 10 4 2 2 3 3 1 4 1 3 3 11 10 1 2 14 13 8 8 6 12 5 6 5 12 5 12 3 3 3 4 4 2 3 6 2 5 3 4 1 6 9
33 31 17 8 4 6 1 1 2 5 2 3 4 5 5 3 2 1 3 6 2 5 3 9 2 7 9 8 6 3 1 6 4 2 0 5 6 5 6 8 4 2 3 9 10
33 26 12 3 7 7 2 4 5 3 3 5 2 4 4 2 2 4 2 0 3 1 3 5 4 4 5 1 1 4 5 3 4 3 6 2 2 8 5 4 8 11 11 12 11
32 17 7 3 11 7 5 5 1 2 4 5 3 3 4 0 1 1 2 1 3 4 1 2 7 1 1 2 4 3 6 4 7 4 5 2 5 5 1 0 3 16 17 14 10
27 9 6 4 11 8 5 3 6 5 4 5 5 6 5 2 1 3 4 2 1 4 5 4 5 3 4 2 2 0 3 3 5 2 2 3 5 3 2 2 7 17 17 15 15
22 3 7 11 8 6 5 4 4 4 4 3 0 2 3 1 2 1 3 2 2 5 1 2 3 1 1 3 6 3 4 2 2 2 3 4 4 5 5 7 5 8 16 19 19
11 2 4 8 4 2 3 6 5 11 7 4 4 3 4 1 2 1 3 1 2 4 5 2 2 5 1 3 5 1 1 5 3 3 4 1 5 5 9 10 13 14 22 23 22
8 3 2 6 3 3 2 4 5 4 7 6 4 5 3 2 3 3 2 3 1 2 2 2 4 4 8 1 2 2 5 5 4 4 2 3 6 3 6 12 18 22 24 22 20
12 4 2 1 2 2 5 4 5 2 2 2 2 3 3 3 3 1 2 3 3 2 3 4 2 2 9 5 2 4 5 4 4 2 5 5 5 1 5 6 19 23 24 22 21
6 3 3 1 4 2 4 4 4 4 2 5 3 4 3 4 4 4 2 2 1 3 4 2 1 6 8 7 1 3 1 3 4 3 4 6 6 5 6 7 10 21 23 22 23
7 3 3 3 3 3 1 3 4 5 5 3 4 3 5 3 1 2 2 4 4 5 4 3 3 1 6 7 4 5 10 6 7 6 5 5 7 8 7 10 19 23 21 21 23
7 6 7 4 6 4 2 2 3 6 2 3 5 1 3 4 5 4 1 1 2 4 2 2 2 3 4 4 3 5 7 7 10 8 6 7 7 5 5 13 17 22 23 23 23
12 7 5 4 4 1 2 3 4 8 2 1 8 4 2 1 3 4 4 5 2 2 1 2 1 3 4 5 6 5 4 4 4 6 5 2 3 3 3 4 7 14 17 20 23
Wind_Direction
18 20 24 27 32 36 44 54 62 69 86 124 156 173 176 185 195 203 205 178 190 185 169 150 191 210 209 237 223 187 52 291 258 217 279 59 77 37 197 182 192 199 215 259 201
14 16 19 23 26 30 41 47 47 44 55 96 147 166 185 178 193 206 183 188 194 214 252 188 215 226 179 190 191 154 118 228 216 223 223 249 94 157 198 222 209 209 220 225 204
10 13 14 16 17 18 22 33 28 24 24 26 127 163 173 171 178 208 193 195 202 205 218 204 251 248 207 186 189 187 209 235 264 264 296 263 246 253 178 230 223 221 212 208 195
8 8 9 10 10 8 14 20 17 14 17 16 7 172 166 153 160 165 188 202 201 211 223 224 217 194 261 201 199 200 248 245 296 278 293 233 312 210 206 230 254 249 240 208 203
8 5 4 3 3 0 353 354 13 11 5 9 325 178 171 193 138 151 216 198 196 203 225 228 241 228 216 216 190 226 264 264 255 280 309 305 324 228 223 305 287 240 218 212 209
7 3 359 358 356 355 343 336 348 13 356 348 333 188 177 231 138 355 195 186 198 205 225 228 257 284 271 237 190 241 245 288 299 342 352 257 107 10 10 66 165 191 196 205 205
6 1 356 354 351 350 340 325 336 355 348 336 322 200 213 177 168 53 137 181 200 218 237 261 298 304 305 262 279 296 301 343 339 23 331 92 333 292 278 162 192 187 198 207 197
4 359 353 351 348 346 338 314 328 340 337 314 247 212 226 209 201 154 131 177 198 225 248 281 326 308 277 320 7 46 49 16 317 322 302 139 267 264 35 119 182 193 198 201 203
1 357 351 348 345 343 338 298 295 314 322 326 253 198 231 218 235 163 156 182 210 243 295 277 293 310 1 55 11 9 298 322 318 322 291 22 253 328 61 87 179 208 216 224 223
359 356 350 345 341 337 314 250 278 283 281 309 241 233 236 198 218 249 172 240 234 288 64 54 121 65 25 69 226 249 286 264 249 282 67 21 328 24 67 161 208 223 235 239 257
358 355 349 342 336 322 264 258 323 305 262 236 246 246 88 81 241 241 283 276 267 285 138 28 72 223 218 193 209 210 223 224 250 287 74 329 196 152 133 250 234 225 218 216 214
356 352 348 340 331 302 233 111 74 357 312 281 247 257 258 272 285 210 233 219 143 184 131 22 226 234 213 230 215 223 260 274 272 144 132 127 269 272 173 177 189 224 250 232 167
353 348 347 338 329 313 161 144 306 305 237 280 243 235 225 229 224 241 199 185 165 197 173 171 232 136 177 271 272 222 205 245 218 129 59 121 306 292 322 253 251 248 253 245 269
349 344 342 337 324 50 148 352 326 219 63 280 245 219 184 176 251 249 240 218 187 211 150 231 249 207 200 250 214 285 215 233 228 111 242 142 261 281 228 297 8 338 277 218 219
345 340 336 325 272 174 179 357 343 10 55 207 200 168 176 177 299 192 223 203 199 190 134 242 224 191 190 227 165 242 140 245 211 185 115 213 112 265 87 247 262 274 253 180 197
342 336 330 318 218 178 25 64 136 41 23 20 139 153 129 235 237 130 162 198 235 150 272 249 230 167 219 250 185 264 127 50 54 102 176 217 153 267 190 196 188 207 145 164 180
339 334 324 285 169 172 140 155 38 125 340 334 204 157 167 174 252 192 197 305 166 96 279 313 242 259 202 233 73 83 63 312 329 337 236 87 83 241 234 195 165 172 169 169 171
338 338 330 211 176 165 143 54 144 300 274 306 41 99 120 7 49 35 100 127 136 85 78 226 330 320 165 198 192 168 154 177 234 235 269 81 236 256 204 287 200 172 165 168 179
339 356 23 161 162 156 156 80 209 212 290 345 346 61 8 26 111 42 7 184 247 182 175 186 276 297 44 87 74 172 223 168 112 23 51 255 298 324 64 92 120 148 161 173 189
338 46 47 129 136 138 82 228 239 226 322 4 176 105 172 234 86 120 202 322 310 53 313 252 277 256 277 92 43 168 151 73 6 238 258 284 278 245 222 207 177 169 176 176 174
345 92 79 134 94 87 148 233 267 255 230 217 217 175 222 198 145 281 343 333 6 319 60 116 139 290 3 209 205 82 277 48 121 146 188 266 262 218 228 188 185 196 183 176 174
0 47 97 152 49 53 154 207 297 277 223 254 162 209 130 59 37 53 305 218 281 231 255 171 160 228 230 299 116 167 211 153 142 228 227 147 269 311 240 180 179 197 188 184 179
346 338 127 43 97 329 304 282 258 293 274 184 154 92 58 131 105 170 283 243 245 238 196 191 234 340 329 351 1 222 194 161 123 78 192 153 263 26 145 174 197 197 195 189 186
358 5 26 127 86 101 354 269 296 294 282 74 91 86 81 42 25 179 251 310 21 58 41 68 76 197 249 233 237 276 266 183 142 144 191 220 267 271 227 216 185 199 197 195 199
10 34 4 317 20 354 234 314 322 356 10 47 42 67 151 118 352 267 253 312 44 15 46 78 259 304 277 266 237 246 267 243 200 224 189 242 214 260 228 206 194 193 197 204 207
20 4 341 291 320 336 56 11 317 325 11 337 129 111 116 147 198 242 170 215 240 13 64 43 282 333 294 331 1 281 279 300 244 248 253 269 277 267 295 185 176 191 201 211 215
2 338 325 311 341 18 336 327 288 343 348 2 153 115 122 178 152 116 127 98 66 151 85 70 2 26 274 344 327 306 342 315 309 31 306 248 312 337 84 133 181 202 210 221 229